Location: Unspecified
(44.4377°N, 88.0525°W)
Time: 00:19:34
(UTC-05:00)

Resurs 1-4 Rocket - Visible Passes

Search period start: 19 April 2014 00:00
Search period end: 29 April 2014 00:00
Orbit: 800 x 815 km, 98.3° (Epoch: 17 April)

Date Brightness Start Highest point End Pass type
(mag) Time Alt. Az. Time Alt. Az. Time Alt. Az.
19 Apr 3.9 04:35:29 10° NNE 04:40:10 32° E 04:44:49 10° SSE visible
20 Apr 4.6 04:11:47 10° NE 04:15:32 20° E 04:19:17 10° SE visible
21 Apr 4.9 03:49:06 10° ENE 03:50:49 12° E 03:52:33 10° ESE visible
21 Apr 2.2 05:26:08 10° NNE 05:31:26 89° ESE 05:36:42 10° SSW visible
22 Apr 2.9 05:01:49 10° NNE 05:07:00 55° E 05:12:09 10° S visible
23 Apr 3.8 04:37:43 10° NNE 04:42:28 33° E 04:47:12 10° SSE visible
24 Apr 4.5 04:13:57 10° NE 04:17:52 21° E 04:21:45 10° SE visible
25 Apr 4.9 03:51:01 10° ENE 03:53:09 12° E 03:55:17 10° ESE visible
26 Apr 2.8 05:04:05 10° NNE 05:09:17 58° E 05:14:29 10° S visible
27 Apr 3.7 04:39:57 10° NNE 04:44:47 35° E 04:49:35 10° SSE visible
28 Apr 4.4 04:16:08 10° NE 04:20:11 22° E 04:24:13 10° SE visible
